W0NKY-13 Weather Reports


Display with metric or nautical units.
time (UTC)temp
F
wind
direction
speed
MPH
gust
MPH
rain 1hr
in
rain 24hr
in
rain mn
in
humidity
%
barometer
mb
20260507175538 65 65 2.0 4.0 0.00 0.00 0.00 39 1017.0
20260507174518 65 128 1.0 4.0 0.00 0.00 0.00 37 1017.2
20260507173518 65 357 2.0 7.0 0.00 0.00 0.00 39 1017.2
20260507172538 64 22 2.0 4.0 0.00 0.00 0.00 43 1017.4
20260507171538 64 60 2.0 5.0 0.00 0.00 0.00 40 1017.6
20260507170516 63 16 2.0 5.0 0.00 0.00 0.00 40 1017.6
20260507165515 63 176 2.0 6.0 0.00 0.00 0.00 39 1017.7
20260507164519 64 101 2.0 4.0 0.00 0.00 0.00 42 1017.8
20260507163516 65 21 2.0 5.0 0.00 0.00 0.00 42 1017.9
20260507162519 65 156 2.0 5.0 0.00 0.00 0.00 39 1017.9
20260507161620 66 9 2.0 6.0 0.00 0.00 0.00 37 1018.0
20260507160536 65 145 2.0 5.0 0.00 0.00 0.00 38 1017.9
20260507155517 65 153 2.0 5.0 0.00 0.00 0.00 38 1018.0
20260507154536 66 51 2.0 5.0 0.00 0.00 0.00 37 1017.9
20260507153519 66 353 2.0 4.0 0.00 0.00 0.00 37 1018.0
20260507152539 66 31 1.0 4.0 0.00 0.00 0.00 37 1018.0
20260507151517 64 4 2.0 4.0 0.00 0.00 0.00 40 1017.8
20260507150518 64 161 1.0 4.0 0.00 0.00 0.00 39 1017.8
20260507145524 63 49 2.0 4.0 0.00 0.00 0.00 41 1017.8
20260507144520 63 35 1.0 3.0 0.00 0.00 0.00 41 1017.8
20260507143517 63 29 1.0 4.0 0.00 0.00 0.00 43 1018.0
20260507142517 62 358 1.0 3.0 0.00 0.00 0.00 43 1018.0
20260507141518 62 61 1.0 3.0 0.00 0.00 0.00 43 1018.1
20260507140518 61 44 1.0 4.0 0.00 0.00 0.00 46 1018.1
20260507135518 60 42 1.0 3.0 0.00 0.00 0.00 50 1018.2
20260507134518 59 14 1.0 4.0 0.00 0.00 0.00 47 1018.0
20260507133558 57 49 1.0 4.0 0.00 0.00 0.00 52 1018.0
20260507132519 53 27 2.0 4.0 0.00 0.00 0.00 57 1017.9
20260507131520 50 19 1.0 3.0 0.00 0.00 0.00 68 1018.0
20260507130516 50 28 1.0 2.0 0.00 0.00 0.00 75 1018.0
20260507125516 49 356 1.0 3.0 0.00 0.00 0.00 72 1017.8
20260507124516 44 7 2.0 3.0 0.00 0.00 0.00 82 1017.8
20260507123541 42 7 1.0 2.0 0.00 0.00 0.00 93 1018.0
20260507122520 41 12 1.0 2.0 0.00 0.00 0.00 95 1017.9
20260507121517 40 9 1.0 2.0 0.00 0.00 0.00 95 1018.0
20260507120537 40 14 2.0 2.0 0.00 0.00 0.00 95 1017.9
20260507115537 39 3 1.0 2.0 0.00 0.00 0.00 95 1017.9
20260507114517 39 346 1.0 2.0 0.00 0.00 0.00 95 1017.9
20260507113517 36 322 1.0 2.0 0.00 0.00 0.00 95 1017.8
20260507112518 35 342 1.0 2.0 0.00 0.00 0.00 95 1017.7
20260507111538 35 9 1.0 2.0 0.00 0.00 0.00 95 1017.7
20260507110518 35 20 0.0 2.0 0.00 0.00 0.00 95 1017.5
20260507105519 35 33 1.0 1.0 0.00 0.00 0.00 95 1017.2
20260507104558 35 39 0.0 2.0 0.00 0.00 0.00 95 1017.1
20260507103519 36 2 1.0 2.0 0.00 0.00 0.00 95 1017.1
20260507102518 36 29 0.0 2.0 0.00 0.00 0.00 95 1017.2
20260507101519 35 18 0.0 2.0 0.00 0.00 0.00 95 1017.2
20260507100518 36 36 0.0 2.0 0.00 0.00 0.00 95 1017.1
20260507095519 37 19 0.0 1.0 0.00 0.00 0.00 95 1017.1
20260507094519 38 22 0.0 2.0 0.00 0.00 0.00 95 1017.2
20260507093519 38 331 0.0 2.0 0.00 0.00 0.00 95 1017.2
20260507092539 38 181 0.0 1.0 0.00 0.00 0.00 95 1017.1
20260507091519 38 258 0.0 1.0 0.00 0.00 0.00 95 1017.0
20260507090516 38 343 1.0 2.0 0.00 0.00 0.00 95 1017.0
20260507085516 38 31 0.0 2.0 0.00 0.00 0.00 95 1017.0
20260507084516 38 7 1.0 2.0 0.00 0.00 0.00 95 1016.8
20260507083536 38 196 0.0 2.0 0.00 0.00 0.00 95 1016.7
20260507082539 39 8 1.0 2.0 0.00 0.00 0.00 95 1016.7
20260507081538 39 1 0.0 1.0 0.00 0.00 0.00 95 1016.6
20260507080518 39 357 1.0 2.0 0.00 0.00 0.00 95 1016.6
20260507075517 39 2 0.0 1.0 0.00 0.00 0.00 95 1016.7
20260507074517 40 41 0.0 1.0 0.00 0.00 0.00 95 1016.6
20260507073520 40 8 0.0 1.0 0.00 0.00 0.00 95 1016.6
20260507072517 40 358 1.0 2.0 0.00 0.00 0.00 95 1016.7
20260507071519 40 360 0.0 1.0 0.00 0.00 0.00 95 1016.7
20260507070517 40 335 0.0 2.0 0.00 0.01 0.00 95 1016.7
20260507065518 40 1 1.0 2.0 0.00 0.03 0.00 95 1016.6
20260507064518 40 14 0.0 1.0 0.00 0.05 0.00 95 1016.7
20260507063520 40 351 1.0 2.0 0.00 0.06 0.00 95 1016.7
20260507062518 40 351 0.0 2.0 0.00 0.07 0.00 95 1016.9
20260507061538 40 357 1.0 2.0 0.00 0.09 0.00 94 1016.9
20260507060536 41 4 0.0 1.0 0.00 0.12 0.00 94 1016.8
20260507055519 41 359 1.0 2.0 0.00 0.14 0.00 94 1016.8
20260507054520 41 7 1.0 2.0 0.00 0.18 0.00 94 1016.9
20260507053519 41 20 0.0 1.0 0.00 0.21 0.00 95 1016.9
20260507052519 40 73 0.0 1.0 0.00 0.24 0.00 94 1016.9
20260507051519 40 353 1.0 2.0 0.00 0.25 0.00 94 1016.9
20260507050516 40 26 0.0 1.0 0.00 0.27 0.00 94 1016.8
20260507045516 40 76 0.0 1.0 0.00 0.27 0.00 94 1016.9
20260507044520 41 79 0.0 1.0 0.00 0.28 0.00 94 1016.8
20260507043539 41 183 0.0 1.0 0.00 0.29 0.00 94 1017.0
20260507042516 42 14 0.0 1.0 0.00 0.29 0.00 94 1016.9
20260507041537 42 19 0.0 1.0 0.00 0.29 0.00 94 1016.9
20260507040517 42 18 0.0 1.0 0.00 0.29 0.00 94 1017.0
20260507035520 41 12 0.0 1.0 0.00 0.30 0.30 93 1016.9
20260507034517 42 0.0 0.0 0.00 0.30 0.30 92 1016.8
20260507033541 42 11 0.0 1.0 0.00 0.30 0.30 93 1016.9
20260507032540 43 26 0.0 1.0 0.00 0.30 0.30 92 1016.9
20260507031520 43 1 0.0 1.0 0.00 0.30 0.30 92 1017.0
20260507030540 43 359 0.0 1.0 0.00 0.30 0.30 92 1016.9
20260507025518 43 17 0.0 1.0 0.00 0.30 0.30 91 1017.0
20260507024539 44 33 0.0 1.0 0.00 0.30 0.30 91 1016.9
20260507023518 44 267 0.0 1.0 0.00 0.32 0.30 90 1016.9
20260507022558 45 15 0.0 1.0 0.00 0.33 0.30 90 1016.8
20260507021521 45 360 0.0 1.0 0.00 0.34 0.30 89 1016.7
20260507020518 46 47 0.0 1.0 0.00 0.34 0.30 89 1016.6
20260507015518 46 12 0.0 1.0 0.00 0.36 0.30 85 1016.5
20260507014519 46 3 0.0 0.0 0.00 0.38 0.30 84 1016.5
20260507013519 47 18 0.0 1.0 0.00 0.39 0.30 82 1016.4
20260507012519 47 202 0.0 1.0 0.00 0.39 0.30 80 1016.3
20260507011519 48 26 0.0 1.0 0.00 0.39 0.30 78 1016.1
20260507010516 50 4 0.0 1.0 0.00 0.39 0.30 76 1016.0
20260507005538 51 27 0.0 1.0 0.00 0.40 0.30 73 1016.0
20260507004516 52 23 1.0 2.0 0.00 0.40 0.30 71 1016.0
20260507003516 53 19 0.0 2.0 0.00 0.40 0.30 69 1016.0
20260507002539 54 2 0.0 0.0 0.00 0.40 0.30 68 1016.0
20260507001519 55 345 0.0 1.0 0.00 0.40 0.30 67 1015.9
20260507000517 56 23 0.0 1.0 0.00 0.40 0.30 65 1015.8
20260506235521 57 32 0.0 1.0 0.00 0.40 0.30 63 1015.8
20260506234520 57 31 0.0 2.0 0.00 0.40 0.30 60 1015.6
20260506233520 58 31 1.0 3.0 0.00 0.40 0.30 58 1015.5
20260506232517 59 17 1.0 3.0 0.00 0.40 0.30 61 1015.4
20260506231537 59 52 1.0 3.0 0.00 0.40 0.30 58 1015.4
20260506230522 60 1 1.0 3.0 0.00 0.40 0.30 58 1015.0
20260506225519 60 19 1.0 2.0 0.00 0.40 0.30 59 1015.1
20260506224518 60 44 0.0 1.0 0.00 0.40 0.30 58 1015.2
20260506223538 60 15 0.0 2.0 0.00 0.40 0.30 57 1015.2
20260506222519 60 17 0.0 2.0 0.00 0.40 0.30 57 1015.4
20260506221521 60 2 1.0 3.0 0.00 0.40 0.30 56 1015.5
20260506220519 60 60 1.0 3.0 0.00 0.40 0.30 56 1015.4
20260506215519 61 11 0.0 2.0 0.00 0.40 0.30 55 1015.6
20260506214518 60 6 1.0 3.0 0.00 0.40 0.30 54 1015.6
20260506213519 61 106 2.0 5.0 0.00 0.40 0.30 52 1015.6
20260506212559 62 51 1.0 4.0 0.00 0.40 0.30 49 1015.5
20260506211519 62 48 1.0 2.0 0.00 0.40 0.30 49 1015.4
20260506210516 62 135 1.0 2.0 0.00 0.41 0.30 49 1015.4
20260506205536 62 134 1.0 4.0 0.00 0.41 0.30 49 1015.3
20260506204520 62 87 1.0 4.0 0.00 0.41 0.30 50 1015.3
20260506203519 62 90 1.0 3.0 0.00 0.41 0.30 52 1015.3
20260506202519 62 133 1.0 3.0 0.00 0.42 0.30 54 1015.3
20260506201540 63 130 1.0 5.0 0.00 0.44 0.30 50 1015.3
20260506200541 63 10 1.0 3.0 0.00 0.45 0.30 51 1015.4
20260506195520 64 161 1.0 4.0 0.00 0.48 0.30 49 1015.4
20260506194517 64 41 1.0 2.0 0.00 0.49 0.30 51 1015.4
20260506193517 63 140 1.0 3.0 0.00 0.49 0.30 52 1015.3
20260506192542 63 99 1.0 3.0 0.00 0.52 0.30 50 1015.4
20260506191518 63 137 1.0 5.0 0.00 0.53 0.30 49 1015.0
20260506190538 64 152 2.0 4.0 0.00 0.60 0.30 47 1014.9
20260506185600 64 139 1.0 4.0 0.00 0.64 0.30 49 1015.0
20260506184518 63 136 1.0 5.0 0.00 0.64 0.30 51 1015.0
20260506183518 62 148 2.0 7.0 0.00 0.64 0.30 51 1015.0
20260506182520 63 157 2.0 5.0 0.00 0.64 0.30 54 1015.0
20260506181518 62 135 2.0 4.0 0.00 0.64 0.30 55 1015.0
20260506180519 63 155 2.0 6.0 0.00 0.64 0.30 52 1015.0